Regional Weather Roundup
Issued by NWS

Home | Current Version | Previous Version | Graphics & Text | Print | Product List | Glossary Off
Versions: 1 2 3 4 5 6 7 8 9 10 11 12 13 14 15 16 17 18 19 20 21 22 23 24 25 26 27 28 29 30 31 32 33 34 35 36 37 38 39 40 41 42 43 44 45 46 47 48 49 50

000
ASUS43 KTOP 030608
RWRKS

WEATHER ROUNDUP FOR KANSAS
NATIONAL WEATHER SERVICE GOODLAND KS
100 AM CDT WED JUN 03 2015

NOTE:  "FAIR" INDICATES FEW OR NO CLOUDS BELOW 12,000 FEET WITH NO
SIGNIFICANT WEATHER AND/OR OBSTRUCTIONS TO VISIBILITY.

KSZ001>006-013>018-027>032-041>047-030700-
NORTHWEST KANSAS

CITY           SKY/WX    TMP DP  RH WIND       PRES   REMARKS
GOODLAND       CLEAR     67  60  78 S14       29.81S
6HR MIN TEMP:  64; 6HR MAX TEMP:  86;

HAYS           CLEAR     73  61  64 S16G22    29.81S
HILL CITY      CLEAR     74  63  68 S12G20    29.78S
6HR MIN TEMP:  74; 6HR MAX TEMP:  87;

RUSSELL        CLEAR     74  66  76 S17G26    29.80S
6HR MIN TEMP:  74; 6HR MAX TEMP:  86;

$$

KSZ061>065-074>080-084>089-030700-
SOUTHWEST KANSAS

CITY           SKY/WX    TMP DP  RH WIND       PRES   REMARKS
DODGE CITY     CLEAR     72  61  68 S15       29.85S
6HR MIN TEMP:  72; 6HR MAX TEMP:  88;

ELKHART          N/A     68  57  68 S15         N/A
GARDEN CITY    CLEAR     69  61  75 S10       29.82F
6HR MIN TEMP:  69; 6HR MAX TEMP:  87;

GREAT BEND     CLEAR     73  64  73 S17       29.83R
LIBERAL        CLEAR     72  61  68 S15       29.87R
PRATT          CLEAR     72  63  73 S20       29.87S
$$

KSZ066>073-081>083-090>101-030700-
SOUTHEAST KANSAS

CITY           SKY/WX    TMP DP  RH WIND       PRES   REMARKS
CHANUTE        PTCLDY    70  68  93 SE8       29.94S
6HR MIN TEMP:  70; 6HR MAX TEMP:  81;

COFFEYVILLE    PTCLDY    71  67  87 S6        29.93S
6HR MIN TEMP:  71; 6HR MAX TEMP:  82;

HUTCHINSON     CLEAR     74  66  76 S14       29.86S
6HR MIN TEMP:  74; 6HR MAX TEMP:  87;

MEDICINE LODGE   N/A     73  66  78 S10G18    29.86S
NEWTON         CLEAR     72  63  73 S14G20    29.90S
PARSONS        PTCLDY    72  67  84 SE6       29.95S
6HR MIN TEMP:  72; 6HR MAX TEMP:  81;

WICHITA INTL   PTCLDY    74  67  78 S15       29.87F
6HR MIN TEMP:  74; 6HR MAX TEMP:  86;

WICHITA JABRA  CLEAR     73  66  78 S15       29.88F
6HR MIN TEMP:  73; 6HR MAX TEMP:  83; 6HR PCP: TRACE;

WICHITA MCCONL CLEAR     74  67  80 SE15      29.89S
WINFIELD       CLEAR     73  67  81 S12       29.91F
6HR MIN TEMP:  73; 6HR MAX TEMP:  82;

$$

KSZ007>012-019>026-033>040-048>060-102>105-030700-
NORTHEAST KANSAS

CITY           SKY/WX    TMP DP  RH WIND       PRES   REMARKS
CONCORDIA      CLEAR     71  66  84 SE14      29.85S
6HR MIN TEMP:  71; 6HR MAX TEMP:  83;

EMPORIA        CLEAR     70  66  87 SE13      29.90F
6HR MIN TEMP:  69; 6HR MAX TEMP:  80;

LAWRENCE       CLEAR     66  59  78 E9        29.94S
6HR MIN TEMP:  66; 6HR MAX TEMP:  75; 6HR PCP: TRACE;

MANHATTAN      CLEAR     71  67  87 SE7       29.88S
6HR MIN TEMP:  71; 6HR MAX TEMP:  82;

MARYSVILLE     CLEAR     68  64  88 S9G20     29.89R
OLATHE IND     PTCLDY    65  60  84 SE12      29.95F
6HR MIN TEMP:  65; 6HR MAX TEMP:  73;

OLATHE EXE     PTCLDY    65  59  81 SE12      29.95F
6HR MIN TEMP:  65; 6HR MAX TEMP:  73;

SALINA         CLEAR     74  67  78 SE13      29.84S
6HR MIN TEMP:  74; 6HR MAX TEMP:  86;

TOPEKA BILLARD CLOUDY    69  62  78 SE10      29.92F
6HR MIN TEMP:  68; 6HR MAX TEMP:  76;

TOPEKA FORBES  CLEAR     69  62  78 SE13      29.91F
6HR MIN TEMP:  69; 6HR MAX TEMP:  78;

$$


USA.gov is the U.S. government's official web portal to all federal, state and local government web resources and services.